Tracking 23762 objects as of 19-Oct-2021
HD Live streaming from Space Station
objects crossing your sky now

ATLAS CENTAUR 2 DEB

Track ATLAS CENTAUR 2 DEB now!
10-day predictions


NORAD ID: 2886
Int'l Code: 1963-047K
Perigee: 670.5 km
Apogee: 1,642.5 km
Inclination: 29.9 °
Period: 108.3 minutes
Semi major axis: 7527 km
RCS: 0.0127 m2 (small)
Launch date: November 27, 1963
Source: United States (US)
Launch site: AIR FORCE EASTERN TEST RANGE (AFETR)

Note: This is SATELLITE DEBRIS
aabbcc
Your satellite tracking list
Your tracking list is empty




NASA's NSSDC Master Catalog

Two Line Element Set (TLE):
1 02886U 63047K   21291.19434278  .00000087  00000-0  15593-4 0  9999
2 02886  29.8737 237.4706 0645684 311.7418  42.9652 13.29309274649411
Source of the keplerian elements: AFSPC